Flag for Canada Weather past 2 weeks in Pickering, Ontario, Canada

Now
61 °F

Drizzle. Low clouds.


Feels Like: 61 °F
Forecast: N/A
Wind: 9 mph from Southeast

Location: Toronto Buttonville

Current Time: Jun 30, 2015 at 6:31:01 PM

Latest Report: Jun 30, 2015 at 5:00 PM


Visibility: 8 mi

Pressure: 29.78 "Hg

Humidity: 94%

Dew point: 59 °F

Location of PickeringLocation

Historic Weather in Pickering — Graph

°F

Pickering temperature yesterday

Maximum temperature yesterday: 75 °F (at 3:00 PM)
Minimum temperature yesterday: 59 °F (at 12:00 AM)
Average temperature yesterday: 66 °F

Past Weeks' High & Low Weather Summary

 TemperatureHumidityPressure
High79 °F (Jun 18, 2:00 PM)100% (Jun 23, 1:04 AM)30.20 "Hg (Jun 23, 1:04 AM)
Low50 °F (Jun 20, 5:00 AM)33% (Jun 17, 7:00 PM)29.62 "Hg (Jun 23, 5:00 AM)
Average66 °F71%29.94 "Hg
* Reported Jun 15 5:00 PM — Jun 30 5:00 PM, Pickering, Weather by CustomWeather, © 2015

Note: Actual official high and low records may vary slightly from our data, if they occured in-between our weather recording intervals... More about our weather records

Advertising

Pickering weather history for previous 24 hours

 ConditionsComfort  
Time TempWeatherWind HumidityBarometerVisibility
5:00 PM
Tue, Jun 30
61 °FDrizzle. Low clouds.9 mph94%29.78 "Hg8 mi
4:00 PM61 °FLow clouds.7 mph94%29.80 "Hg10 mi
3:00 PM63 °FLow clouds.13 mph88%29.80 "Hg12 mi
2:00 PM63 °FOvercast.12 mph88%29.81 "Hg12 mi
1:04 PM64 °FOvercast.10 mph83%29.82 "Hg12 mi
12:00 PM64 °FLight rain. Overcast.9 mph83%29.83 "Hg12 mi
11:54 AM64 °FLight rain. Overcast.10 mph83%29.83 "Hg12 mi
11:00 AM66 °FOvercast.9 mph78%29.83 "Hg12 mi
10:00 AM66 °FPartly sunny.8 mph78%29.84 "Hg15 mi
9:00 AM63 °FOvercast.9 mph83%29.86 "Hg12 mi
8:00 AM61 °FMostly cloudy.2 mph83%29.86 "Hg12 mi
7:03 AM59 °FLight rain. Partly sunny.3 mph88%29.86 "Hg15 mi
6:00 AM59 °FPassing clouds.2 mph82%29.86 "Hg15 mi
5:00 AM57 °FPassing clouds.2 mph88%29.86 "Hg15 mi
4:00 AM57 °FPassing clouds.2 mph88%29.86 "Hg15 mi
3:00 AM57 °FPassing clouds.5 mph88%29.87 "Hg15 mi
2:00 AM59 °FPassing clouds.2 mph88%29.88 "Hg15 mi
1:00 AM61 °FClear.No wind88%29.89 "Hg15 mi
12:00 AM64 °FPassing clouds.No wind78%29.89 "Hg15 mi
11:00 PM
Mon, Jun 29
64 °FPassing clouds.No wind78%29.90 "Hg15 mi
10:00 PM66 °FPassing clouds.5 mph68%29.89 "Hg15 mi
9:00 PM68 °FScattered clouds.6 mph64%29.87 "Hg15 mi
8:00 PM70 °FScattered clouds.7 mph60%29.87 "Hg15 mi
7:00 PM73 °FBroken clouds.12 mph47%29.86 "Hg15 mi
6:00 PM73 °FPartly sunny.13 mph44%29.86 "Hg15 mi
Weather by CustomWeather, © 2015

See weather overviewHow to use our weather pages